Flag for Canada Weather past 2 weeks in Surrey, British Columbia, Canada

Now
54 °F

Cool.


Feels Like: 54 °F
Forecast: 43 / 66 °F
Wind: 2 mph from South

Location: P. Meadows Coastal Station

Current Time: Apr 18, 2015 at 9:38:06 PM

Latest Report: Apr 18, 2015 at 9:00 PM


Visibility: N/A

Pressure: 30.24 "Hg

Humidity: 61%

Dew point: 41 °F

Location of SurreyLocation

Historic Weather in Surrey — Graph

°F

Surrey temperature yesterday

Maximum temperature yesterday: 65 °F (at 5:00 PM)
Minimum temperature yesterday: 42 °F (at 2:00 AM)
Average temperature yesterday: 51 °F

Past Weeks' High & Low Weather Summary

 TemperatureHumidityPressure
High66 °F (Apr 18, 5:00 PM)100% (Apr 5, 5:00 AM)30.54 "Hg (Apr 5, 5:00 AM)
Low33 °F (Apr 5, 5:00 AM)33% (Apr 9, 5:00 PM)29.67 "Hg (Apr 5, 8:00 PM)
Average47 °F74%30.06 "Hg
* Reported Apr 3 8:00 PM — Apr 18 8:00 PM, Surrey, Weather by CustomWeather, © 2015

Note: Actual official high and low records may vary slightly from our data, if they occured in-between our weather recording intervals... More about our weather records

Advertising

Surrey weather history for previous 24 hours

 ConditionsComfort  
Time TempWeatherWind HumidityBarometerVisibility
8:00 PM
Sat, Apr 18
59 °FRefreshingly cool.2 mph45%30.24 "HgN/A
7:00 PM60 °FRefreshingly cool.7 mph45%30.25 "HgN/A
6:00 PM65 °FMild.7 mph42%30.27 "HgN/A
5:00 PM66 °FMild.8 mph42%30.27 "HgN/A
4:00 PM65 °FMild.9 mph45%30.29 "HgN/A
3:00 PM65 °FMild.9 mph50%30.32 "HgN/A
2:00 PM65 °FMild.6 mph40%30.33 "HgN/A
1:00 PM63 °FMild.6 mph47%30.35 "HgN/A
12:00 PM60 °FRefreshingly cool.6 mph54%30.38 "HgN/A
11:00 AM57 °FRefreshingly cool.3 mph60%30.39 "HgN/A
10:00 AM54 °FCool.2 mph70%30.40 "HgN/A
9:00 AM50 °FCool.No wind84%30.40 "HgN/A
8:00 AM45 °FCool.No wind91%30.39 "HgN/A
7:00 AM40 °FQuite cool.No wind94%30.38 "HgN/A
6:00 AM40 °FChilly.No wind97%30.37 "HgN/A
5:00 AM41 °FQuite cool.No wind93%30.36 "HgN/A
4:00 AM40 °FQuite cool.2 mph98%30.35 "HgN/A
3:00 AM43 °FQuite cool.1 mph87%N/AN/A
2:00 AM45 °FCool.6 mph77%N/AN/A
1:00 AM44 °FQuite cool.1 mph89%N/AN/A
12:00 AM45 °FCool.1 mph80%N/AN/A
11:00 PM
Fri, Apr 17
47 °FCool.1 mph72%N/AN/A
10:00 PM54 °FCool.3 mph55%N/AN/A
9:00 PM54 °FCool.2 mph54%30.26 "HgN/A
Weather by CustomWeather, © 2015

See weather overviewHow to use our weather pages